Location: Cave
(41.8160°N, 12.9350°E)
Time: 15:13:43
(UTC+01:00)

ISS - Pass Details

Date: 12 March 2019
Orbit: 406 x 411 km, 51.6° (Epoch: 21 March)

Event Time Altitude Azimuth Distance (km) Brightness Sun altitude
Exits shadow 03:27:37 - 49° (NE) 1,611 0.0 -33.0°
Enters shadow 04:26:24 -66° 279° (W) 12,068 3.6 -22.9°
Maximum altitude 05:02:24 30° 24° (NNE) 762 -2.1 -16.4°
